Погода в Мальбюне

Лихтенштейн     47°06′04″N   9°36′35″E
темп.,
°C
ветер,
м/с
пор.,
м/с
влажн.,
%
обл.,
%
осадки,
мм/ч
давл.,
гПа
погр.,
м
11 мая, вт
вт1123:00+7ю58924 0.2 1010204
02:00+6ю57925 0.3 1011142
05:00+6ю469528 0.1 1009101
08:00+8ю4688100 0.6 1008392
11:00+12ю5568100 0.1 1006925
14:00+11ююз1277100 1.1 1007955
17:00+6ссз3397100 6.6 1010311
20:00+3св1298100 15.8 1013300
12 мая, ср
ср1223:00+3в1197100 4.6 1014201
02:00+3ссз3499100 8.1 1014531
05:00+3ссз2399100 2.5 1014444
08:00+3с2399100 3.0 1015363
11:00+4с2397100 0.5 1014474
14:00+6ссв128286 1.1 1012755
17:00+7с3378100 0.4 1010757
20:00+5с2389100 1.0 1011253
13 мая, чт
чт1323:00+4ссз2395100 0.3 1012179
02:00+4ссз1295100 0.4 1011100
05:00+3ссз129498 0.0 101071
08:00+3с2396100 0.2 1010382
11:00+6ссз338398 0.7 1009749
14:00+7ссз4479100 2.1 10071140
17:00+5ссз3494100 1.7 1009680
20:00+3сз239899 2.7 1010468
14 мая, пт
пт1423:00+1зсз1197100 0.1 101274
02:00+1сз1197100 0.4 101291
05:00+2с12100100 0.9 1011209
08:00+2с1198100 1.3 1012161
11:00+6ссв1177100 0.4 1010824
14:00+7с2275100 1.6 1009966
17:00+7ссз337764 1.3 1009764
20:00+5ссз238984 2.7 101174
15 мая, сб
сб1523:00+2сз1194100 0.3 101414
02:00+2зсз1195100 0.3 101532
05:00+2сз119699 0.0 1015115
08:00+3зюз119489 0.1 1015213
11:00+8ююв1166100 0.1 10121077
14:00+12ю1246100 0.3 10091852
17:00+11ссз2254100 0.4 10071284
20:00+6сз2292100 1.4 100989